Ana Sayfa
METAR-TAF:

METAR-TAF

Havaalanları :

Harry Clever Field

New Philadelphia, Ohio, Amerika Birleşik Devletleri

Enlem: 40-28-19N, Boylam: 081-25-25W, yükseklik: 272 m

Güncel hava durumu gözlemi

Rapor saat 22:53 UTC de 1 saat ve 12 dakika önce yapıldı.
Rüzgar kuzeydan 10 kt ve 18 kt'a kadar ani rüzgarlar
Sıcaklık 24°C
Nem 50%
Basınç 1018 hPa
Görüş mesafesi: 16.1 km
Açık gökyüzü

METAR: KPHD 112253Z AUTO 35010G18KT 10SM CLR 24/13 A3005 RMK AO2 SLP170 T02440133

Saat: 20:05 (00:05 UTC)


TAF: eksik

4.000'den fazla havaalanı için hava durumu gözlemleri ve tahminleri (METAR ve TAF raporları).

Kullanılabilir istasyonlar harita üzerinde sarı ve kırmızı noktalarla gösterilir.

İstasyonun adını görmek için fareyi noktanın üzerinde gezdirin.

Sonrasında hava gözlem ve tahminlerini görmek için tıklayın.

Haritayı değiştirmek için: yaklaştırmak için siyah artı işaretli yeşil düğmeye ve uzaklaştırmak için de eksi işaretli düğmeye hızla tıklayın; bitişik haritalar için yeşil okları kullanın.


METAR-TAF: